�N����,����,����,����,����,�C��,���x,�~����,�S�V����,�ő�u�ԕ���,,,,,
,,,,,,,,,����,����,����,�N��,,
yyyy/mm/dd,hh:mm:ss,(16),16����,m/s,��,%,mm,KW/�u,(16),16����,m/s,Time,,
2017/5/1,1:00:00,16,�É�,0,-0.7,92.1,0,0,7,��쓌,1.8,30,,
2017/5/1,2:00:00,16,�É�,0,1.3,95.5,0,0,1,�k�k��,2.4,40,,
2017/5/1,3:00:00,12,��,1.2,-0.3,95.6,0,0,1,�k�k��,3.2,13,,
2017/5/1,4:00:00,12,��,2.6,1.3,96.8,0,0,13,���k��,4.1,31,,
2017/5/1,5:00:00,13,���k��,0.8,1.2,97.5,0,0.03,12,��,4.8,14,,
2017/5/1,6:00:00,12,��,0.9,4.9,98.8,0,0.17,13,���k��,2.4,0,,
2017/5/1,7:00:00,4,��,1,8.7,65.1,0,0.37,3,���k��,2.5,56,,
2017/5/1,8:00:00,4,��,2.5,10.8,59,0,0.58,4,��,4.1,26,,
2017/5/1,9:00:00,6,�쓌,2.6,12.1,46.4,0,0.75,6,�쓌,4.2,20,,
2017/5/1,10:00:00,5,���쓌,2.4,13.4,43.1,0,0.91,6,�쓌,4.7,26,,
2017/5/1,11:00:00,5,���쓌,3,14.5,41.2,0,0.99,5,���쓌,4.2,52,,
2017/5/1,12:00:00,4,��,4.2,14.7,47.6,0,1.01,4,��,6.8,40,,
2017/5/1,13:00:00,5,���쓌,2.5,15.1,44.6,0,0.99,4,��,5.4,0,,
2017/5/1,14:00:00,6,�쓌,3.4,15.9,36.1,0,0.88,6,�쓌,5.6,56,,
2017/5/1,15:00:00,5,���쓌,0.5,15.6,43.9,0,0.36,6,�쓌,4.8,0,,
2017/5/1,16:00:00,16,�k,4.6,15.7,34.3,0,0.28,16,�k,8.4,51,,
2017/5/1,17:00:00,15,�k�k��,3.8,15.2,36.2,0,0.27,14,�k��,9.5,24,,
2017/5/1,18:00:00,15,�k�k��,3.6,13.6,40.3,0,0.14,15,�k�k��,8.8,42,,
2017/5/1,19:00:00,1,�k�k��,2.1,12.5,46.3,0,0.02,1,�k�k��,6.7,6,,
2017/5/1,20:00:00,4,��,5.4,9.5,64.8,0,0,4,��,8.1,49,,
2017/5/1,21:00:00,4,��,3.5,7.8,73.6,0,0,4,��,7.8,2,,
2017/5/1,22:00:00,5,���쓌,1.9,6.8,80,0,0,3,���k��,4.6,1,,
2017/5/1,23:00:00,3,���k��,1.5,6.6,80,0,0,3,���k��,3.6,47,,
2017/5/1,0:00:00,16,�É�,0,5.9,81.5,0,0,4,��,2.5,4,,
2017/5/2,1:00:00,16,�É�,0,5.6,81.8,0,0,16,�É�,0,0,,
2017/5/2,2:00:00,2,�k��,0.6,5.6,84.8,0,0,3,���k��,1.8,38,,
2017/5/2,3:00:00,2,�k��,1.6,5.7,80,0,0,2,�k��,3.9,45,,
2017/5/2,4:00:00,1,�k�k��,1,5.3,80.2,0,0,1,�k�k��,2.8,13,,
2017/5/2,5:00:00,1,�k�k��,0.9,5.2,80.1,0,0.02,1,�k�k��,2.3,33,,
2017/5/2,6:00:00,13,���k��,2.2,7.3,73,0,0.17,13,���k��,3.4,51,,
2017/5/2,7:00:00,3,���k��,1.5,9,60.5,0,0.32,13,���k��,2.8,7,,
2017/5/2,8:00:00,16,�k,2,11.2,47.1,0,0.59,16,�k,5.1,47,,
2017/5/2,9:00:00,5,���쓌,3.7,9.1,56.8,0,0.77,5,���쓌,5.9,18,,
2017/5/2,10:00:00,7,��쓌,3.6,10.5,52.3,0,0.9,6,�쓌,5.9,5,,
2017/5/2,11:00:00,7,��쓌,5.1,10.3,52.1,0,0.98,6,�쓌,7.5,58,,
2017/5/2,12:00:00,8,��,5.5,10.4,59.3,0,1.03,7,��쓌,9,36,,
2017/5/2,13:00:00,8,��,5.2,9.5,57.7,0,0.98,7,��쓌,8.4,54,,
2017/5/2,14:00:00,8,��,4.4,9.6,63.2,0,0.88,8,��,8.8,34,,
2017/5/2,15:00:00,7,��쓌,4.8,8.4,67,0,0.72,7,��쓌,8,40,,
2017/5/2,16:00:00,7,��쓌,3,7.8,70.1,0,0.54,8,��,6.7,11,,
2017/5/2,17:00:00,6,�쓌,2.1,6.8,73.9,0,0.33,7,��쓌,5.4,2,,
2017/5/2,18:00:00,3,���k��,1.5,5.6,77.3,0,0.13,6,�쓌,3.1,4,,
2017/5/2,19:00:00,2,�k��,1.9,4,86.2,0,0.01,2,�k��,2.6,57,,
2017/5/2,20:00:00,3,���k��,2.1,3.6,90.2,0,0,1,�k�k��,3.2,25,,
2017/5/2,21:00:00,4,��,1.6,2.7,90.9,0,0,2,�k��,3.1,0,,
2017/5/2,22:00:00,12,��,1.1,-0.3,89.6,0,0,3,���k��,2.1,20,,
2017/5/2,23:00:00,16,�É�,0,1.7,93.6,0,0,14,�k��,2.6,30,,
2017/5/2,0:00:00,12,��,1.7,-0.1,94.3,0,0,12,��,2.5,59,,
2017/5/3,1:00:00,12,��,2.1,0.3,95.8,0,0,12,��,3.2,17,,
2017/5/3,2:00:00,12,��,2.5,1.2,96.5,0,0,12,��,3.4,51,,
2017/5/3,3:00:00,11,���쐼,2.1,-0.6,96.1,0,0,12,��,2.9,42,,
2017/5/3,4:00:00,12,��,2.5,-0.5,95.5,0,0,12,��,3,53,,
2017/5/3,5:00:00,13,���k��,1.2,1.4,96.8,0,0.03,12,��,3.4,33,,
2017/5/3,6:00:00,12,��,1.6,7.2,91.3,0,0.2,14,�k��,3.9,47,,
2017/5/3,7:00:00,12,��,1.8,11.5,64.6,0,0.36,13,���k��,3.8,14,,
2017/5/3,8:00:00,12,��,0.8,16.1,38.1,0,0.55,11,���쐼,2.7,12,,
2017/5/3,9:00:00,7,��쓌,1.4,18.2,33.3,0,0.6,10,�쐼,2.7,43,,
2017/5/3,10:00:00,7,��쓌,3.1,20,27.1,0,0.86,7,��쓌,4.8,47,,
2017/5/3,11:00:00,7,��쓌,3.6,20.4,19.4,0,1.03,7,��쓌,5.2,54,,
2017/5/3,12:00:00,7,��쓌,3.9,20.3,20.6,0,1.06,7,��쓌,5.6,58,,
2017/5/3,13:00:00,7,��쓌,4,20.8,20.1,0,1.01,7,��쓌,6.4,36,,
2017/5/3,14:00:00,8,��,4.2,22.9,19.5,0,0.9,8,��,6.7,59,,
2017/5/3,15:00:00,9,��쐼,3.3,24,22.5,0,0.74,8,��,7.1,22,,
2017/5/3,16:00:00,8,��,2.7,22.4,22.5,0,0.57,8,��,6,13,,
2017/5/3,17:00:00,2,�k��,1.5,21.5,31.4,0,0.35,8,��,4.2,9,,
2017/5/3,18:00:00,14,�k��,2.5,21.5,21.8,0,0.14,1,�k�k��,5.9,24,,
2017/5/3,19:00:00,15,�k�k��,2.1,19.2,28.8,0,0.01,14,�k��,7.1,9,,
2017/5/3,20:00:00,14,�k��,2.5,17.5,27.1,0,0,15,�k�k��,5.1,56,,
2017/5/3,21:00:00,3,���k��,3.3,13.4,42.9,0,0,5,���쓌,5.4,45,,
2017/5/3,22:00:00,2,�k��,1.3,10.2,58.6,0,0,3,���k��,3.8,1,,
2017/5/3,23:00:00,16,�É�,0,5.9,64.8,0,0,2,�k��,2,14,,
2017/5/3,0:00:00,12,��,1.7,6.7,73,0,0,12,��,2.2,53,,
2017/5/4,1:00:00,12,��,1.7,4.3,78.9,0,0,12,��,2.5,3,,
2017/5/4,2:00:00,16,�É�,0,3.5,80,0,0,12,��,2.6,4,,
2017/5/4,3:00:00,12,��,1.7,2.2,84.3,0,0,12,��,3.1,37,,
2017/5/4,4:00:00,12,��,2.2,2.2,87.7,0,0,12,��,2.8,0,,
2017/5/4,5:00:00,12,��,2.6,3.7,88.8,0,0.03,12,��,3.1,16,,
2017/5/4,6:00:00,12,��,0.7,7.6,79.3,0,0.18,12,��,3,17,,
2017/5/4,7:00:00,6,�쓌,0.7,12.7,43.4,0,0.39,6,�쓌,2.2,56,,
2017/5/4,8:00:00,5,���쓌,1.4,14.3,35.8,0,0.61,5,���쓌,2.8,52,,
2017/5/4,9:00:00,5,���쓌,2.3,14.3,37.1,0,0.8,5,���쓌,4.6,42,,
2017/5/4,10:00:00,7,��쓌,2.7,13.1,39.1,0,0.88,7,��쓌,5,46,,
2017/5/4,11:00:00,6,�쓌,2.5,13.6,38.5,0,1.04,6,�쓌,5.6,4,,
2017/5/4,12:00:00,6,�쓌,2.3,15.1,39.1,0,1.07,6,�쓌,4.5,8,,
2017/5/4,13:00:00,6,�쓌,2.1,15.3,41.5,0,1.02,6,�쓌,4.8,7,,
2017/5/4,14:00:00,6,�쓌,1.6,15.8,35.6,0,0.92,6,�쓌,3.6,8,,
2017/5/4,15:00:00,5,���쓌,2.3,16.7,35.9,0,0.77,5,���쓌,3.5,59,,
2017/5/4,16:00:00,5,���쓌,1.5,17.9,35.3,0,0.58,5,���쓌,3.1,1,,
2017/5/4,17:00:00,16,�É�,0,17.8,34.5,0,0.37,5,���쓌,2.5,2,,
2017/5/4,18:00:00,5,���쓌,0.5,12,44.5,0,0.15,7,��쓌,2.1,22,,
2017/5/4,19:00:00,11,���쐼,3,16.1,44.9,0,0.01,11,���쐼,4.8,55,,
2017/5/4,20:00:00,1,�k�k��,1.9,10.8,51.1,0,0,11,���쐼,3.4,1,,
2017/5/4,21:00:00,1,�k�k��,2.3,7.9,68.3,0,0,3,���k��,3.5,3,,
2017/5/4,22:00:00,3,���k��,1,7,76.7,0,0,13,���k��,3.1,41,,
2017/5/4,23:00:00,16,�É�,0.1,4.7,78.7,0,0,16,�k,2.9,49,,
2017/5/4,0:00:00,10,�쐼,1.4,4.5,77.8,0,0,13,���k��,2.9,4,,
2017/5/5,1:00:00,12,��,1.8,3.8,80.1,0,0,11,���쐼,2.7,51,,
2017/5/5,2:00:00,13,���k��,1.5,4,85.2,0,0,12,��,3.1,20,,
2017/5/5,3:00:00,16,�É�,0.1,3.1,82.5,0,0,7,��쓌,4.6,34,,
2017/5/5,4:00:00,14,�k��,1.2,1.9,82.2,0,0,12,��,2.2,35,,
2017/5/5,5:00:00,13,���k��,2.6,7.3,86.6,0,0.03,13,���k��,4.1,15,,
2017/5/5,6:00:00,14,�k��,2.5,10.8,63.7,0,0.17,14,�k��,5.9,32,,
2017/5/5,7:00:00,12,��,1.6,15.7,55.4,0,0.32,13,���k��,3.3,3,,
2017/5/5,8:00:00,5,���쓌,0.6,12.4,50.2,0,0.58,6,�쓌,9.7,6,,
2017/5/5,9:00:00,3,���k��,1.8,18.2,39.3,0,0.72,3,���k��,3.1,56,,
2017/5/5,10:00:00,4,��,2.8,15.3,52.5,0,0.92,5,���쓌,7.5,12,,
2017/5/5,11:00:00,4,��,1.3,19.2,37.9,0,0.76,4,��,3.4,19,,
2017/5/5,12:00:00,4,��,2,19.9,37.8,0,0.9,5,���쓌,4.3,4,,
2017/5/5,13:00:00,4,��,2.5,16.6,50.3,0,0.71,5,���쓌,5.2,25,,
2017/5/5,14:00:00,3,���k��,2.6,14.1,56.9,0,0.59,5,���쓌,5.1,11,,
2017/5/5,15:00:00,4,��,3,13.4,60.4,0,0.49,5,���쓌,4.6,57,,
2017/5/5,16:00:00,3,���k��,2.1,12.8,61.6,0,0.35,4,��,3.6,34,,
2017/5/5,17:00:00,5,���쓌,2.1,11.1,65.8,0,0.18,3,���k��,3.2,27,,
2017/5/5,18:00:00,5,���쓌,1.3,9.1,74.5,0,0.09,4,��,2.9,50,,
2017/5/5,19:00:00,6,�쓌,0.8,6.8,80.8,0,0.02,4,��,2.9,26,,
2017/5/5,20:00:00,4,��,2.3,6.1,86.8,0,0,4,��,3.6,54,,
2017/5/5,21:00:00,16,�É�,0.2,4.8,90.7,0,0,4,��,3,3,,
2017/5/5,22:00:00,11,���쐼,0.9,2.3,90.6,0,0,12,��,2.2,37,,
2017/5/5,23:00:00,12,��,1.6,2.2,91.4,0,0,12,��,2.4,59,,
2017/5/5,0:00:00,16,�É�,0,1.5,93.9,0,0,12,��,3.3,12,,
2017/5/6,1:00:00,16,�É�,0,1.1,93.9,0,0,15,�k�k��,1.4,46,,
2017/5/6,2:00:00,12,��,2.2,3,95.9,0,0,12,��,3.2,29,,
2017/5/6,3:00:00,12,��,2.5,2.3,96.1,0,0,12,��,3,58,,
2017/5/6,4:00:00,12,��,2.4,2.3,95.4,0,0,12,��,3.2,59,,
2017/5/6,5:00:00,12,��,1.9,5.4,96.3,0,0.04,12,��,3.5,4,,
2017/5/6,6:00:00,12,��,1.1,9.3,93.1,0,0.14,12,��,2.9,20,,
2017/5/6,7:00:00,6,�쓌,1,11.9,74.4,0,0.3,2,�k��,3.6,39,,
2017/5/6,8:00:00,3,���k��,1.3,11.2,75.3,0,0.21,7,��쓌,3.9,25,,
2017/5/6,9:00:00,5,���쓌,1.8,13,68.5,0,0.33,6,�쓌,2.6,43,,
2017/5/6,10:00:00,5,���쓌,1.6,10.5,72.5,0,0.35,5,���쓌,4.6,24,,
2017/5/6,11:00:00,2,�k��,0.8,12.1,70.7,0,0.26,5,���쓌,2.5,6,,
2017/5/6,12:00:00,3,���k��,1.5,13,66.3,0,0.23,3,���k��,3.1,59,,
2017/5/6,13:00:00,9,��쐼,4.4,15.7,69.4,0,0.4,8,��,9.1,47,,
2017/5/6,14:00:00,8,��,5.6,17.1,62.8,0,0.43,8,��,9.8,56,,
2017/5/6,15:00:00,8,��,4.6,13.4,65,0,0.26,8,��,12.1,10,,
2017/5/6,16:00:00,7,��쓌,5.1,12.2,71.8,0,0.27,8,��,9.7,25,,
2017/5/6,17:00:00,7,��쓌,4.2,11,76.2,0,0.25,7,��쓌,9.1,12,,
2017/5/6,18:00:00,6,�쓌,4,13,83.5,0,0.07,7,��쓌,7.8,1,,
2017/5/6,19:00:00,6,�쓌,4.2,15,77.9,0,0.01,7,��쓌,7.4,57,,
2017/5/6,20:00:00,11,���쐼,3.8,17.2,40.4,0,0,10,�쐼,9.6,41,,
2017/5/6,21:00:00,12,��,3.9,14.8,25.3,0,0,13,���k��,6.7,29,,
2017/5/6,22:00:00,11,���쐼,3.6,12.8,23.7,0,0,12,��,6.6,8,,
2017/5/6,23:00:00,12,��,2.4,10.6,29,0,0,12,��,4.7,38,,
2017/5/6,0:00:00,13,���k��,1.1,5.8,46.5,0,0,12,��,4.9,2,,
2017/5/7,1:00:00,12,��,1.6,5,60.6,0,0,12,��,3.1,53,,
2017/5/7,2:00:00,12,��,2,3.8,74.5,0,0,10,�쐼,5,24,,
2017/5/7,3:00:00,14,�k��,0.5,-1.2,76.3,0,0,12,��,3.5,12,,
2017/5/7,4:00:00,12,��,1.6,-1.5,83.9,0,0,12,��,3.4,59,,
2017/5/7,5:00:00,13,���k��,1.3,-0.2,90.6,0,0.03,12,��,3.6,33,,
2017/5/7,6:00:00,12,��,0.6,5.2,75.9,0,0.19,11,���쐼,3.1,24,,
2017/5/7,7:00:00,8,��,2.7,12.6,34.1,0,0.4,8,��,4.7,51,,
2017/5/7,8:00:00,11,���쐼,5.9,13.5,44.3,0,0.45,10,�쐼,10.6,41,,
2017/5/7,9:00:00,13,���k��,3.1,14,48.3,0,0.64,11,���쐼,7.5,7,,
2017/5/7,10:00:00,7,��쓌,2.8,13,43.9,0,0.3,7,��쓌,4.3,59,,
2017/5/7,11:00:00,10,�쐼,4.9,16.6,38.9,0,0.69,11,���쐼,9.2,32,,
2017/5/7,12:00:00,11,���쐼,7.7,17.2,27.9,0,1.01,11,���쐼,17,46,,
2017/5/7,13:00:00,10,�쐼,10.2,17.1,25,0,0.97,12,��,17.2,8,,
2017/5/7,14:00:00,11,���쐼,8.9,17.2,28.7,0,0.88,11,���쐼,16.5,32,,
2017/5/7,15:00:00,10,�쐼,7.6,15.7,40,0,0.73,12,��,17.2,8,,
2017/5/7,16:00:00,11,���쐼,7.6,15,32.9,0,0.5,12,��,14.1,39,,
2017/5/7,17:00:00,10,�쐼,6.5,14.5,30.6,0,0.29,11,���쐼,13.9,8,,
2017/5/7,18:00:00,9,��쐼,2.2,12.7,34.3,0,0.1,10,�쐼,8.1,0,,
2017/5/7,19:00:00,8,��,0.3,10.7,38.4,0,0.01,11,���쐼,8,10,,
2017/5/7,20:00:00,16,�É�,0,10.5,42.8,0,0,8,��,2.5,47,,
2017/5/7,21:00:00,10,�쐼,3,8.4,45.2,0,0,6,�쓌,5.3,14,,
2017/5/7,22:00:00,10,�쐼,4,11.6,37.7,0,0,10,�쐼,5.7,44,,
2017/5/7,23:00:00,10,�쐼,3.4,10.9,39.1,0,0,10,�쐼,5.3,55,,
2017/5/7,0:00:00,8,��,1.8,9.7,41.3,0,0,10,�쐼,5.5,16,,
2017/5/8,1:00:00,7,��쓌,2,6.3,56.7,0,0,8,��,3.4,44,,
2017/5/8,2:00:00,3,���k��,0.4,6.1,66.1,0,0,2,�k��,2.3,38,,
2017/5/8,3:00:00,9,��쐼,1.9,8.4,57.2,0,0,9,��쐼,4.6,23,,
2017/5/8,4:00:00,7,��쓌,1.7,8.4,57.2,0,0,11,���쐼,4.5,10,,
2017/5/8,5:00:00,10,�쐼,2.1,8,68.7,0,0.03,10,�쐼,4.1,39,,
2017/5/8,6:00:00,6,�쓌,2.2,10.7,64.2,0,0.1,9,��쐼,6.6,12,,
2017/5/8,7:00:00,11,���쐼,1.7,9.8,75,0,0.04,8,��,6.6,34,,
2017/5/8,8:00:00,15,�k�k��,1.3,10,82.2,1.5,0.11,10,�쐼,8.1,18,,
2017/5/8,9:00:00,10,�쐼,3.8,9.2,79,0.5,0.19,10,�쐼,5.7,57,,
2017/5/8,10:00:00,9,��쐼,4.5,8.7,85.2,1.5,0.21,9,��쐼,8.8,24,,
2017/5/8,11:00:00,10,�쐼,3.2,10.2,59.8,0,0.82,10,�쐼,10,58,,
2017/5/8,12:00:00,13,���k��,3.2,12.4,61.1,0.5,0.82,15,�k�k��,8.4,2,,
2017/5/8,13:00:00,13,���k��,3.9,15.4,43.8,0,0.88,12,��,11.2,51,,
2017/5/8,14:00:00,12,��,6,13.8,38,0,0.66,12,��,10.9,2,,
2017/5/8,15:00:00,12,��,9.2,13.8,51.1,0,0.67,12,��,16.2,5,,
2017/5/8,16:00:00,12,��,7.4,14,43.7,0,0.59,12,��,14,0,,
2017/5/8,17:00:00,12,��,8.4,13.5,36.2,0,0.4,12,��,13.1,57,,
2017/5/8,18:00:00,15,�k�k��,3.2,10.8,48.8,0,0.18,13,���k��,13.2,12,,
2017/5/8,19:00:00,16,�k,2.5,9.2,52.8,0,0.02,15,�k�k��,8.6,24,,
2017/5/8,20:00:00,16,�k,3.7,8.4,58.1,0,0,15,�k�k��,7.4,38,,
2017/5/8,21:00:00,14,�k��,3.6,7.5,61.9,0,0,14,�k��,7.8,14,,
2017/5/8,22:00:00,14,�k��,3,7,57.1,0,0,15,�k�k��,7,29,,
2017/5/8,23:00:00,12,��,2.6,2,62.8,0,0,11,���쐼,5,50,,
2017/5/8,0:00:00,10,�쐼,1.6,3.5,68.4,0,0,10,�쐼,3.8,59,,
2017/5/9,1:00:00,11,���쐼,2.3,1,70.2,0,0,12,��,4.5,18,,
2017/5/9,2:00:00,13,���k��,0.9,-1.3,76.4,0,0,16,�k,2.5,23,,
2017/5/9,3:00:00,14,�k��,0.6,-1.8,83.8,0,0,11,���쐼,3.1,44,,
2017/5/9,4:00:00,13,���k��,1.6,-1.8,88.9,0,0,12,��,4.1,39,,
2017/5/9,5:00:00,12,��,2.4,-0.9,87.1,0,0.04,12,��,3.7,22,,
2017/5/9,6:00:00,12,��,1.5,4.5,73.3,0,0.2,13,���k��,3.2,0,,
2017/5/9,7:00:00,12,��,1.3,10.4,52.7,0,0.42,12,��,3.8,7,,
2017/5/9,8:00:00,15,�k�k��,3.3,13.6,32.9,0,0.62,1,�k�k��,6.1,49,,
2017/5/9,9:00:00,14,�k��,4,15.3,36.6,0,0.79,14,�k��,7.7,51,,
2017/5/9,10:00:00,1,�k�k��,3,17.1,31.6,0,0.94,15,�k�k��,7.3,38,,
2017/5/9,11:00:00,8,��,4.2,15,30.8,0,1.03,6,�쓌,7.8,21,,
2017/5/9,12:00:00,8,��,3.7,15.6,29.5,0,1.07,9,��쐼,7.8,59,,
2017/5/9,13:00:00,9,��쐼,4.8,16,34.5,0,1.01,9,��쐼,9.6,28,,
2017/5/9,14:00:00,8,��,4.6,16.3,40.1,0,0.9,7,��쓌,10.2,37,,
2017/5/9,15:00:00,8,��,3.6,16.6,43.3,0,0.75,8,��,8,11,,
2017/5/9,16:00:00,8,��,3.1,16.6,38.3,0,0.57,8,��,7.1,22,,
2017/5/9,17:00:00,7,��쓌,2.9,15.8,37.6,0,0.38,8,��,5.9,6,,
2017/5/9,18:00:00,13,���k��,1,13.8,40.7,0,0.16,8,��,3.6,34,,
2017/5/9,19:00:00,7,��쓌,1.5,10.5,54.7,0,0.02,6,�쓌,3.2,16,,
2017/5/9,20:00:00,13,���k��,1,6.2,65.6,0,0,8,��,4,25,,
2017/5/9,21:00:00,12,��,1.6,7.1,74.2,0,0,12,��,2.8,23,,
2017/5/9,22:00:00,13,���k��,1.8,5.2,73,0,0,3,���k��,4,31,,
2017/5/9,23:00:00,11,���쐼,1.3,3.9,74.7,0,0,13,���k��,3,25,,
2017/5/9,0:00:00,12,��,2.3,2.1,79.9,0,0,12,��,2.8,57,,
2017/5/10,1:00:00,12,��,1.7,4.3,87.9,0,0,12,��,2.8,56,,
2017/5/10,2:00:00,13,���k��,2.3,4.2,85,0,0,12,��,4,6,,
2017/5/10,3:00:00,10,�쐼,0.4,2.6,81.8,0,0,12,��,4.1,33,,
2017/5/10,4:00:00,11,���쐼,1.1,1.2,82.7,0,0,11,���쐼,2.1,35,,
2017/5/10,5:00:00,12,��,1.9,2.1,90.2,0,0.03,12,��,2.5,55,,
2017/5/10,6:00:00,14,�k��,0.3,7,81.3,0,0.18,12,��,2.1,15,,
2017/5/10,7:00:00,5,���쓌,1.5,12.4,52.2,0,0.43,12,��,8,30,,
2017/5/10,8:00:00,4,��,2.9,10.4,63.2,0,0.53,5,���쓌,4.9,0,,
2017/5/10,9:00:00,4,��,2.6,11.4,59.4,0,0.54,5,���쓌,5.4,0,,
2017/5/10,10:00:00,8,��,4.3,12.3,55.4,0,0.74,8,��,8.8,58,,
2017/5/10,11:00:00,8,��,6.7,14.4,48.8,0,0.71,8,��,12.9,43,,
2017/5/10,12:00:00,8,��,6.9,14.4,45.3,0,0.86,8,��,12.5,0,,
2017/5/10,13:00:00,8,��,7.6,12.5,47.4,0,0.74,8,��,13.9,9,,
2017/5/10,14:00:00,8,��,6.2,11,52.9,0,0.53,8,��,13.6,4,,
2017/5/10,15:00:00,8,��,5.4,10.8,62.7,0,0.24,8,��,12.1,4,,
2017/5/10,16:00:00,8,��,5.4,10.2,71.1,0,0.22,8,��,12,40,,
2017/5/10,17:00:00,8,��,3.5,9.9,73,0,0.14,9,��쐼,10.4,15,,
2017/5/10,18:00:00,8,��,3.9,9.1,80.5,0,0.04,9,��쐼,7.9,39,,
2017/5/10,19:00:00,8,��,2.1,7.8,90.2,0.5,0,7,��쓌,6.9,14,,
2017/5/10,20:00:00,7,��쓌,1.8,8.3,93,0.5,0,7,��쓌,5.2,33,,
2017/5/10,21:00:00,3,���k��,2.5,7.7,92.8,0.5,0,3,���k��,4.4,57,,
2017/5/10,22:00:00,3,���k��,3.7,6.9,94.1,0.5,0,3,���k��,5.2,57,,
2017/5/10,23:00:00,3,���k��,3.8,7,95.9,0.5,0,2,�k��,5.7,12,,
2017/5/10,0:00:00,2,�k��,3.5,7.2,96.7,2,0,2,�k��,5.5,59,,
2017/5/11,1:00:00,16,�k,1.9,7.7,99,1,0,16,�k,3.1,30,,
2017/5/11,2:00:00,15,�k�k��,1.6,7.8,99,0.5,0,15,�k�k��,2.8,30,,
2017/5/11,3:00:00,15,�k�k��,2.7,7.9,99,0,0,15,�k�k��,1.4,54,,
2017/5/11,4:00:00,14,�k��,2.4,8.1,99,0,0,14,�k��,3.3,54,,
2017/5/11,5:00:00,14,�k��,2.7,8.4,97,0,0.01,14,�k��,3.7,20,,
2017/5/11,6:00:00,15,�k�k��,2.8,9.1,99,0,0.05,15,�k�k��,4,1,,
2017/5/11,7:00:00,15,�k�k��,3.1,9.9,100,0,0.13,15,�k�k��,2.9,9,,
2017/5/11,8:00:00,16,�k,3.3,9.9,100,0,0.18,16,�k,1.9,7,,
2017/5/11,9:00:00,16,�k,3.6,10.4,100,0.5,0.42,16,�k,1.5,45,,
2017/5/11,10:00:00,16,�k,2.8,10.8,100,0,0.28,16,�k,2.5,23,,
2017/5/11,11:00:00,16,�k,2.5,11.3,100,0.5,0.27,16,�k,1.7,17,,
2017/5/11,12:00:00,2,�k��,1.6,11.4,100,0,0.31,2,�k��,1.7,18,,
2017/5/11,13:00:00,3,���k��,2.6,11,100,1,0.32,3,���k��,2.5,39,,
2017/5/11,14:00:00,2,�k��,1.1,11.3,100,0,0.44,2,�k��,2.5,17,,
2017/5/11,15:00:00,5,���쓌,0.9,10.3,98,1,0.36,5,���쓌,1.9,55,,
2017/5/11,16:00:00,9,��쐼,1.5,10.2,97,1,0.18,9,��쐼,2.6,50,,
2017/5/11,17:00:00,10,�쐼,1.5,10.2,98,0,0.12,10,�쐼,2.3,35,,
2017/5/11,18:00:00,3,���k��,2.1,9.9,97,0.5,0.04,3,���k��,2.5,58,,
2017/5/11,19:00:00,13,���k��,0.9,9.9,98,0.5,0,13,���k��,2.1,50,,
2017/5/11,20:00:00,14,�k��,0.4,9.8,99,0.5,0,14,�k��,1.5,12,,
2017/5/11,21:00:00,14,�k��,1.1,9.8,99,0.5,0,14,�k��,1.4,34,,
2017/5/11,22:00:00,2,�k��,0.6,9.8,100,0,0,2,�k��,1.6,36,,
2017/5/11,23:00:00,0,�É�,0,9.4,100,1,0,0,�k,1.5,38,,
2017/5/11,0:00:00,10,�쐼,0.9,9.4,99,1,0,10,�쐼,1,58,,
2017/5/12,1:00:00,1,�k�k��,0.6,9.4,100,0,0,1,�k�k��,1.7,18,,
2017/5/12,2:00:00,16,�k,1.3,9.3,99,0,0,16,�k,1.4,38,,
2017/5/12,3:00:00,15,�k�k��,2.8,9.3,97,0,0,15,�k�k��,1.5,18,,
2017/5/12,4:00:00,15,�k�k��,3.5,9.4,100,0,0,15,�k�k��,1.2,35,,
2017/5/12,5:00:00,14,�k��,3.3,9.3,100,0,0,14,�k��,1.8,52,,
2017/5/12,6:00:00,15,�k�k��,4.5,10.3,95,0,0.15,15,�k�k��,3.6,49,,
2017/5/12,7:00:00,16,�k,4,10.4,91,0,0.35,16,�k,2.8,6,,
2017/5/12,8:00:00,15,�k�k��,2.8,10.8,94,0,0.59,15,�k�k��,2.7,3,,
2017/5/12,9:00:00,14,�k��,3,12.3,92,0,1,14,�k��,1.9,1,,
2017/5/12,10:00:00,6,�쓌,2.9,11,88,0,2.54,6,�쓌,2.8,59,,
2017/5/12,11:00:00,6,�쓌,3.2,12.4,85,0,1.63,6,�쓌,3.8,7,,
2017/5/12,12:00:00,6,�쓌,4.2,10,88,0,2.45,6,�쓌,2.8,45,,
2017/5/12,13:00:00,5,���쓌,3.9,9.9,91,0,2.76,5,���쓌,5.1,53,,
2017/5/12,14:00:00,6,�쓌,3.8,8.8,92,0,0.71,6,�쓌,5.6,11,,
2017/5/12,15:00:00,7,��쓌,3.6,8.2,93,0,0.87,7,��쓌,6.7,45,,
2017/5/12,16:00:00,6,�쓌,2.9,8.4,90,0,0.57,6,�쓌,7.7,49,,
2017/5/12,17:00:00,6,�쓌,3.9,6.9,91,0,0.5,6,�쓌,7.6,19,,
2017/5/12,18:00:00,7,��쓌,3,6.3,93,0,0.16,7,��쓌,4.6,6,,
2017/5/12,19:00:00,6,�쓌,3,6,94,0,0.02,6,�쓌,6.3,43,,
2017/5/12,20:00:00,6,�쓌,2.3,5.9,88,0,0,6,�쓌,5.2,20,,
2017/5/12,21:00:00,6,�쓌,2.1,5.5,86,0,0,6,�쓌,4.3,47,,
2017/5/12,22:00:00,6,�쓌,1.6,5.3,85,0,0,6,�쓌,4.3,14,,
2017/5/12,23:00:00,6,�쓌,2.1,5,97,0,0,6,�쓌,4.5,41,,
2017/5/12,0:00:00,6,�쓌,0.8,5,90.2,0,0,6,�쓌,2.2,25,,
2017/5/13,1:00:00,6,�쓌,1.8,4.9,93.5,0,0,7,��쓌,3,58,,
2017/5/13,2:00:00,6,�쓌,1.8,4.7,90.7,0,0,6,�쓌,3.2,23,,
2017/5/13,3:00:00,5,���쓌,1.8,4.7,90.1,0,0,6,�쓌,2.6,32,,
2017/5/13,4:00:00,5,���쓌,2.1,4.6,91.1,0,0,4,��,4,33,,
2017/5/13,5:00:00,5,���쓌,2.5,4.5,90.8,0,0.02,5,���쓌,3.8,41,,
2017/5/13,6:00:00,5,���쓌,3.5,4.8,89.1,0,0.09,5,���쓌,4.5,57,,
2017/5/13,7:00:00,5,���쓌,3.1,5.1,86.9,0,0.16,4,��,4.9,18,,
2017/5/13,8:00:00,6,�쓌,3.3,5.4,81.6,0,0.29,6,�쓌,4.9,49,,
2017/5/13,9:00:00,5,���쓌,3,6,79.3,0,0.39,5,���쓌,5.1,18,,
2017/5/13,10:00:00,6,�쓌,3.1,6.6,75.7,0,0.52,5,���쓌,5.3,13,,
2017/5/13,11:00:00,5,���쓌,3.3,6.5,71.2,0,0.57,5,���쓌,5.4,10,,
2017/5/13,12:00:00,5,���쓌,3.7,6.8,70.7,0,0.72,4,��,5.8,53,,
2017/5/13,13:00:00,5,���쓌,3.9,6.3,74.7,0,0.54,5,���쓌,6,50,,
2017/5/13,14:00:00,5,���쓌,3.4,5.8,72.2,0,0.61,5,���쓌,6.1,6,,
2017/5/13,15:00:00,5,���쓌,3,6,74.9,0,0.42,5,���쓌,5.5,2,,
2017/5/13,16:00:00,5,���쓌,3.1,5,79,0,0.22,5,���쓌,5.3,21,,
2017/5/13,17:00:00,6,�쓌,2.1,5,80.6,0,0.12,5,���쓌,4.3,9,,
2017/5/13,18:00:00,8,��,1.7,4.8,81.6,0,0.05,6,�쓌,3,31,,
2017/5/13,19:00:00,6,�쓌,0.9,4.7,82.9,0,0.01,7,��쓌,2.6,0,,
2017/5/13,20:00:00,5,���쓌,1.2,4.6,85.9,0,0,4,��,3.6,14,,
2017/5/13,21:00:00,5,���쓌,1.1,4.6,85.6,0,0,5,���쓌,2.5,28,,
2017/5/13,22:00:00,4,��,1.8,4.5,86.4,0,0,4,��,2.5,59,,
2017/5/13,23:00:00,5,���쓌,2.3,4.4,85.9,0,0,5,���쓌,3.3,0,,
2017/5/13,0:00:00,6,�쓌,1.4,4.3,85.5,0,0,5,���쓌,3.9,20,,
2017/5/14,1:00:00,4,��,3,3.9,87.5,0,0,5,���쓌,4.2,59,,
2017/5/14,2:00:00,4,��,1.5,3.7,89.6,0,0,4,��,4.4,28,,
2017/5/14,3:00:00,4,��,2.2,3.5,87.7,0,0,4,��,4.1,31,,
2017/5/14,4:00:00,3,���k��,2.3,3.3,87.9,0,0,3,���k��,3.8,55,,
2017/5/14,5:00:00,16,�k,1.1,3.5,87.4,0,0.02,3,���k��,3.9,3,,
2017/5/14,6:00:00,1,�k�k��,2,3.9,83,0,0.06,1,�k�k��,3.5,39,,
2017/5/14,7:00:00,4,��,3.4,4.6,79.2,0,0.11,4,��,5,54,,
2017/5/14,8:00:00,4,��,3.3,4.5,76.5,0,0.19,4,��,6.2,34,,
2017/5/14,9:00:00,4,��,3.2,4.9,75.4,0,0.26,4,��,5.5,33,,
2017/5/14,10:00:00,4,��,3.5,5,76.3,0,0.29,5,���쓌,5.9,14,,
2017/5/14,11:00:00,3,���k��,3.1,5,74.8,0,0.32,3,���k��,6.1,31,,
2017/5/14,12:00:00,4,��,3.6,5.8,71.1,0,0.45,4,��,5.6,50,,
2017/5/14,13:00:00,4,��,4,7.1,66.8,0,0.78,5,���쓌,7.4,39,,
2017/5/14,14:00:00,4,��,4.8,5.7,73,0,0.68,4,��,7.4,44,,
2017/5/14,15:00:00,5,���쓌,4.5,5.6,75.6,0,0.5,4,��,7,27,,
2017/5/14,16:00:00,4,��,3.7,5.2,78.4,0,0.27,4,��,5.8,31,,
2017/5/14,17:00:00,4,��,2.5,4.9,79.6,0,0.12,5,���쓌,4.3,18,,
2017/5/14,18:00:00,3,���k��,1.6,4.6,82.7,0,0.03,4,��,3.7,1,,
2017/5/14,19:00:00,3,���k��,1,4.6,84,0,0.01,3,���k��,3.2,9,,
2017/5/14,20:00:00,4,��,2.1,4.6,85.1,0,0,4,��,3,55,,
2017/5/14,21:00:00,3,���k��,0.6,4.5,91,0,0,3,���k��,3.4,3,,
2017/5/14,22:00:00,16,�É�,0,4.7,90.4,0,0,4,��,1.7,22,,
2017/5/14,23:00:00,4,��,1.1,4.7,89.8,0,0,4,��,1.8,57,,
2017/5/14,0:00:00,4,��,1.8,4.7,90.8,0,0,6,�쓌,3.2,47,,
2017/5/15,1:00:00,4,��,1.4,4.7,92,0,0,5,���쓌,2.5,5,,
2017/5/15,2:00:00,5,���쓌,1.8,4.5,91.8,0,0,4,��,2.9,32,,
2017/5/15,3:00:00,4,��,1,4.5,92,0,0,4,��,2.5,17,,
2017/5/15,4:00:00,4,��,2.1,4.4,91.8,0,0,4,��,2.6,58,,
2017/5/15,5:00:00,5,���쓌,1.3,4.4,93.3,0,0.01,4,��,2.8,26,,
2017/5/15,6:00:00,5,���쓌,2.3,4.5,93.9,0,0.02,5,���쓌,3.4,46,,
2017/5/15,7:00:00,6,�쓌,1.9,4.6,93.6,0,0.04,6,�쓌,3.9,26,,
2017/5/15,8:00:00,5,���쓌,2.1,4.8,92.5,0,0.1,6,�쓌,3.4,14,,
2017/5/15,9:00:00,3,���k��,1.9,5.1,89.3,0,0.1,4,��,3,1,,
2017/5/15,10:00:00,2,�k��,1.5,5.4,87.1,0,0.1,2,�k��,2.9,1,,
2017/5/15,11:00:00,4,��,2.9,5.5,84.2,0,0.13,4,��,4.2,48,,
2017/5/15,12:00:00,2,�k��,2.5,5.3,87,0.5,0.11,3,���k��,3.8,25,,
2017/5/15,13:00:00,2,�k��,1.6,6,87.8,1,0.23,2,�k��,4.3,19,,
2017/5/15,14:00:00,4,��,2.6,5.7,87.4,0,0.1,4,��,3.7,51,,
2017/5/15,15:00:00,2,�k��,1.7,5.5,91.3,0,0.07,4,��,4,15,,
2017/5/15,16:00:00,3,���k��,2.4,5.5,93.5,0,0.06,3,���k��,3.7,59,,
2017/5/15,17:00:00,3,���k��,2.5,5.3,93.7,0,0.04,3,���k��,3.9,57,,
2017/5/15,18:00:00,3,���k��,2.4,5.2,94.5,0,0.02,2,�k��,3.9,35,,
2017/5/15,19:00:00,3,���k��,2,5.2,94.9,0,0.01,3,���k��,3.1,49,,
2017/5/15,20:00:00,3,���k��,2.5,5.1,95.2,0,0,3,���k��,3.8,57,,
2017/5/15,21:00:00,3,���k��,2.3,5.2,95.7,0,0,3,���k��,4.2,43,,
2017/5/15,22:00:00,3,���k��,1.2,5.2,96.1,0,0,2,�k��,3.2,7,,
2017/5/15,23:00:00,3,���k��,1.8,5.2,96,0.5,0,3,���k��,3.8,10,,
2017/5/15,0:00:00,2,�k��,1.9,5.2,96,0,0,2,�k��,3.4,57,,
2017/5/16,1:00:00,2,�k��,1.6,5.1,96.1,0,0,2,�k��,3.3,32,,
2017/5/16,2:00:00,1,�k�k��,1.5,5.1,96.2,0.5,0,2,�k��,2.8,50,,
2017/5/16,3:00:00,1,�k�k��,1.3,5.2,96.1,0,0,2,�k��,2.2,50,,
2017/5/16,4:00:00,15,�k�k��,0.9,5.2,96.2,0,0,15,�k�k��,1.7,57,,
2017/5/16,5:00:00,14,�k��,0.7,5.3,95.8,0.5,0.01,1,�k�k��,1.8,51,,
2017/5/16,6:00:00,14,�k��,2.1,5.6,95.3,1.5,0.04,16,�k,3.6,57,,
2017/5/16,7:00:00,14,�k��,0.4,5.5,95.3,6,0.02,1,�k�k��,4.1,25,,
2017/5/16,8:00:00,14,�k��,1.6,6.5,95.7,4,0.09,13,���k��,3.4,39,,
2017/5/16,9:00:00,1,�k�k��,2,8.1,90,0,0.22,2,�k��,3.6,59,,
2017/5/16,10:00:00,4,��,3.1,7.3,86.4,0,0.19,4,��,4.8,57,,
2017/5/16,11:00:00,4,��,3.3,7.6,90.4,0,0.2,3,���k��,6.5,44,,
2017/5/16,12:00:00,3,���k��,4.9,7.2,90.4,0,0.27,3,���k��,7.1,52,,
2017/5/16,13:00:00,3,���k��,3.8,7.1,92.5,0,0.22,3,���k��,6.6,19,,
2017/5/16,14:00:00,3,���k��,4.2,7.3,94.4,0,0.16,3,���k��,6.4,56,,
2017/5/16,15:00:00,2,�k��,3.2,8.2,92.9,0,0.22,3,���k��,6.3,18,,
2017/5/16,16:00:00,4,��,4.3,7.1,91.8,0,0.12,4,��,5.9,51,,
2017/5/16,17:00:00,4,��,3,6.3,92,0,0.09,4,��,6.4,4,,
2017/5/16,18:00:00,4,��,1.8,6.2,91.6,0,0.04,4,��,4,4,,
2017/5/16,19:00:00,16,�É�,0.2,5.6,92.3,0,0.01,3,���k��,2.7,32,,
2017/5/16,20:00:00,5,���쓌,1.4,5.6,93.7,0,0,5,���쓌,2,57,,
2017/5/16,21:00:00,16,�É�,0,5.5,94.4,0,0,4,��,2.2,8,,
2017/5/16,22:00:00,16,�É�,0,5.1,94.5,0,0,16,�É�,0,0,,
2017/5/16,23:00:00,16,�É�,0,5.4,95.1,0,0,16,�É�,0,0,,
2017/5/16,0:00:00,16,�É�,0,5.5,95.6,0,0,16,�É�,0,0,,
2017/5/17,1:00:00,16,�É�,0,5.6,95.7,0,0,16,�É�,0,0,,
2017/5/17,2:00:00,16,�É�,0,5.9,95.9,0,0,16,�É�,0,0,,
2017/5/17,3:00:00,13,���k��,2.1,6.1,95.7,0,0,13,���k��,3.5,51,,
2017/5/17,4:00:00,14,�k��,1.2,6.2,95.9,0,0,8,��,3.5,3,,
2017/5/17,5:00:00,16,�É�,0,5.6,96,0,0.03,14,�k��,2.8,8,,
2017/5/17,6:00:00,16,�É�,0,6.4,96,0,0.12,1,�k�k��,1,2,,
2017/5/17,7:00:00,2,�k��,0.3,7.8,74.6,0,0.39,2,�k��,1.7,48,,
2017/5/17,8:00:00,6,�쓌,1.9,7.9,75.9,0,0.56,6,�쓌,3.4,23,,
2017/5/17,9:00:00,6,�쓌,2.3,8.7,74.9,0,0.74,6,�쓌,3.7,0,,
2017/5/17,10:00:00,7,��쓌,2.4,9.6,73.5,0,0.95,7,��쓌,4.4,19,,
2017/5/17,11:00:00,7,��쓌,2.3,11.4,65.5,0,1.04,8,��,4.2,29,,
2017/5/17,12:00:00,7,��쓌,3.2,11.1,62.7,0,1.07,7,��쓌,5.2,38,,
2017/5/17,13:00:00,7,��쓌,3.1,12.4,62.6,0,1.03,8,��,5.6,15,,
2017/5/17,14:00:00,7,��쓌,3,12.4,65.3,0,0.92,7,��쓌,5.8,6,,
2017/5/17,15:00:00,7,��쓌,2.5,12.2,62.9,0,0.76,5,���쓌,4,42,,